OPS 4682 DEB, 38394

Orbit data source: Space-Track

OPS 4682 DEB, 38394 is space debris in LEO originally from a launch on Sat, 03 Apr 1965 UTC launched from the Air Force Western Test Range (AFWTR). Debris objects in space refer to the collection of defunct objects orbiting the Earth. Examples of debris include non-operational satellites, rocket bodies, and fragments generated from explosions, collisions, or faulty payload assembly.

Loading next visibility...
Identifier
38394, 1965-027CX
Orbit
LEO
Country
Flag of USUS
Related business
Manufacturer
Unknown
Mission
Spacecraft
Bus & Motor
Unknown
Mass
Unknown
Launch date (UTC)
1965-04-03 (61 years ago)
Launch vehicle
Unknown
Launch site
Air Force Western Test Range (AFWTR)
Object type
Payload
Rocket body
Debris
Shape & HBR
Unknown shape, 0.1 m
Radar Cross Section
Small (<0.1 m²)

Expand to show TLE details & history
Last TLE update: 20 hours ago

TLE from 20 hours ago
0 OPS 4682 DEB
1 38394U 65027CX  26103.52811762  .00000981  00000-0  32253-2 0  9996
2 38394  90.2717  22.6916 0035153 155.3596 204.9215 13.00045024 56319
Epoch: 2026-04-13T12:40Z
TLE epoch observation values (Epoch: 2026-04-13T12:40:29.362Z)
Latitude
-0.00002°
Longitude
-9.14817°
Altitude
1,289.172 km
Speed
7.2 km/s
True Right ascension
01h 30m 45s
True Declination
0° 00' 00"
Sunlit
Object was in daylight at epoch
Visualization orbit readout
Latitude
Unknown
Longitude
Unknown
Altitude
Unknown
Speed
Unknown
Apparent Right ascension
Unknown
Apparent Declination
Unknown
Sunlit
N/A
Visualization observer readout
Local Sidereal Time
14:52:11
Azimuth
Unknown
Elevation
Unknown
Doppler factor
Unknown
Orbital elements
Apogee altitude
1,285.884 km
Perigee altitude
1,232.19 km
Semi-major axis
7,637.174 km
Eccentricity
0.00352
Inclination
90.2717°
RAAN
22.6916°
Arg. of periapsis
155.3596°
True anomaly
204.75243°
Mean anomaly
204.9215°
Eccentric anomaly
204.8369°
Mean motion
3.25195 °/min
Orbital period
110.7 mins
BSTAR
0.0032253
Loading maneuver chart data...
Computing Atmospheric mass density...
Loading historical data...
Loading historical data...
Loading historical data...
Loading historical data...
Loading historical data...
Loading historical data...
Loading historical data...

Documentation

Showing up to 5 results
|